[[{"header":{"parameterUnit":"m.s-1","parameterCategory":1,"la1":30.2991,"la2":30.254,"lo1":-89.0895,"lo2":-89.0444,"dy":0.0017,"dx":0.0017,"nx":28,"ny":28,"refTime":"2025-07-07T09:00:00:Z","depth":0,"parameterNumber":2,"parameterNumberName":"U-component_of_WINDS"},"data":[0,0,0,0,0,0,0,0,0,0,0,0,0,0,0,0,0,0,0,0,0,0,0,0,0,0,0,0,0,0,0,0,0,0,0,0,0,0,0,0,0,0,0,0,0,0,0,0,0,0,0,0,0,0,0,0,0,0,5.4796,5.4798,0,5.4952,5.4954,5.4956,5.486,5.4856,5.4851,5.4847,5.5011,5.5019,5.5028,0,0,0,0,0,0,0,0,0,0,0,0,0,5.4418,5.4425,5.4796,5.4798,5.48,5.4952,5.4954,5.4956,5.4861,5.4856,5.485,5.4845,5.5008,5.5018,5.5029,0,0,0,0,0,0,0,0,0,0,0,0,0,5.4579,5.4428,5.4796,5.4771,5.477,5.4952,5.4954,5.4957,5.4862,5.4856,5.4849,5.4842,5.5005,5.5017,5.503,5.5246,0,0,5.5069,5.5075,0,0,0,0,0,0,0,0,5.457,5.4593,5.4773,5.4773,5.4772,5.488,5.4881,5.5054,5.4864,5.4828,5.4847,5.4839,5.4973,5.4988,5.5032,5.5253,5.526,5.507,5.5078,5.5084,5.5087,0,0,0,0,0,0,0,5.4559,5.4586,5.4858,5.4775,5.4775,5.4753,5.4768,5.4913,5.4937,5.483,5.4824,5.4843,5.4972,5.502,5.5036,5.5263,5.507,5.5082,5.5089,5.5095,5.5667,5.5674,0,0,0,0,0,0,5.4549,5.4577,5.4853,5.4863,5.4652,5.4765,5.4782,5.4852,5.4935,5.4941,5.4849,5.4838,5.5002,5.5021,5.5041,5.5298,5.5084,5.5096,5.5103,5.5659,5.5668,5.5676,0,0,0,0,0,0,5.4542,5.4575,5.4847,5.4718,5.4751,5.4779,5.4858,5.4859,5.4907,5.4949,5.4953,5.4894,5.4997,5.5023,5.5195,5.5302,5.5102,5.5113,5.565,5.5662,5.5672,5.5814,0,0,0,0,0,0,5.4531,5.4573,5.4655,5.4721,5.4758,5.4998,5.4865,5.4867,5.4929,5.4917,5.4992,5.4998,5.4994,5.5176,5.5208,5.5316,5.5123,5.5641,5.5656,5.5669,5.58,5.5828,5.5853,0,0,0,0,0,5.4518,5.469,5.4659,5.4693,5.4861,5.5004,5.5026,5.5016,5.4938,5.5021,5.5047,5.4996,5.5285,5.5195,5.5229,5.5343,5.5634,5.5651,5.5668,5.5788,5.5823,5.5852,0,0,0,0,0,0,5.4638,5.4698,5.4665,5.4863,5.4929,5.4988,5.5092,5.5054,5.5144,5.5129,5.5113,5.5131,5.531,5.5344,5.5242,5.5555,5.5448,5.5472,5.5527,5.5561,5.5587,5.5575,5.5134,0,0,0,0,0,5.4686,5.4797,5.4844,5.5014,5.5048,5.5065,5.5127,5.5113,5.5181,5.5209,5.5248,5.5317,5.5423,5.5494,5.5594,5.5804,5.5818,5.5899,5.5926,5.5948,5.5969,5.6081,5.6117,5.5732,5.5731,5.5731,0,0,5.479,5.4836,5.4907,5.5039,5.5088,5.5203,5.5089,5.5216,5.5301,5.5229,5.5393,5.5424,5.55,5.5691,5.5778,5.5725,5.6078,5.5969,5.5986,5.5996,5.6102,5.6138,5.617,5.5743,5.5741,5.5739,0,0,5.5036,5.5083,5.5228,5.528,5.5355,5.5364,5.5399,5.5464,5.5481,5.5645,5.5593,5.5694,5.5878,5.5934,5.5986,5.6251,5.6207,5.6284,5.6424,5.6533,5.6563,5.659,5.6683,5.6717,5.6306,5.6306,5.6306,0,5.5155,5.5325,5.5309,5.5439,5.5498,5.5436,5.5583,5.5634,5.574,5.5782,5.5721,5.5949,5.5996,5.6198,5.6263,5.6308,5.6347,5.6276,5.656,5.6587,5.6611,5.67,5.6736,5.6315,5.6314,5.6313,5.6312,0,5.5466,5.5585,5.5694,5.5794,5.5866,5.6005,5.601,5.6084,5.6064,5.608,5.6247,5.6301,5.641,5.6457,5.6439,5.6657,5.6621,5.6561,5.6452,5.6657,5.674,5.6774,5.6327,5.6324,5.6322,5.6319,0,0,5.5794,5.5882,5.5922,5.5966,5.6044,5.6136,5.6271,5.6376,5.6439,5.6514,5.6626,5.6782,5.6725,5.6785,5.6773,5.6869,5.7074,5.6796,5.6798,5.6845,5.7315,5.7359,5.7399,5.7044,5.7051,5.7056,5.7308,0,5.6043,5.6278,5.6266,5.6486,5.6595,5.6536,5.6654,5.6715,5.6733,5.6828,5.6848,5.6958,5.6876,5.6911,5.7004,5.7029,5.7168,5.7011,5.7149,5.7154,5.7131,5.7443,5.7491,5.7726,5.734,5.7346,5.735,0,5.6367,5.6449,5.668,5.6739,5.6784,5.689,5.6984,5.7076,5.7143,5.7149,5.7215,5.7187,5.7323,5.7211,5.7399,5.7292,5.7348,5.7369,5.7378,5.739,5.7264,5.7462,5.7801,5.7836,5.7401,5.7397,5.7394,0,5.6581,5.675,5.6909,5.6949,5.7023,5.7098,5.7132,5.7193,5.7256,5.7338,5.7379,5.7477,5.7531,5.7608,5.7607,5.7525,5.7797,5.7685,5.7806,5.7806,5.7865,5.7861,5.8217,5.7903,5.7902,5.7902,5.7901,0,5.6861,5.7004,5.7005,5.7103,5.7261,5.7247,5.7404,5.743,5.7484,5.7586,5.7543,5.7639,5.7632,5.7731,5.7731,5.7885,5.7911,5.7919,5.7917,5.7923,5.7922,5.7959,5.7942,5.7911,5.7909,5.7907,5.7906,0,5.7127,5.7134,5.7303,5.7358,5.7375,5.7489,5.7536,5.7629,5.7642,5.7772,5.7801,5.7823,5.7936,5.7942,5.8073,5.8073,5.826,5.8241,5.8237,5.8233,5.8353,5.8342,5.8744,5.8796,5.845,5.8453,5.8456,0,5.7305,5.7413,5.7478,5.7542,5.7581,5.7686,5.7749,5.7738,5.7806,5.789,5.7972,5.8081,5.8166,5.835,5.8377,5.8477,5.8459,5.8593,5.8474,5.8475,5.8459,5.8453,5.8463,5.8616,5.862,5.8623,5.8626,0,5.7619,5.7617,5.7709,5.7803,5.7879,5.7952,5.8021,5.8076,5.8073,5.8152,5.8266,5.8332,5.8464,5.8572,5.8668,5.8704,5.8665,5.8663,5.8696,5.8702,5.8695,5.8699,5.83,5.8654,5.8651,5.8649,5.8648,5.8646,5.7846,5.7938,5.7998,5.8102,5.8152,5.8216,5.8305,5.8328,5.8422,5.8528,5.8516,5.8642,5.8705,5.883,5.8874,5.8972,5.8926,5.8975,5.8987,5.8999,5.901,5.868,5.899,5.8989,5.8988,5.8988,5.8987,0,5.8157,5.8192,5.8288,5.8383,5.8465,5.8419,5.8491,5.8563,5.8674,5.8735,5.8819,5.8949,5.9053,5.9088,5.9189,5.9261,5.9245,5.9287,5.9282,5.929,5.9046,5.9007,5.9298,5.9298,5.9298,5.9298,5.9298,5.9298,5.8329,5.8482,5.8486,5.8663,5.8697,5.8819,5.8864,5.8923,5.8971,5.9118,5.9203,5.9224,5.9275,5.9378,5.9471,5.9479,5.9518,5.9567,5.9568,5.9339,5.9308,5.9278,5.9241,5.9576,5.9577,5.9803,5.9805,5.9807]},{"header":{"parameterUnit":"m.s-1","parameterCategory":1,"la1":30.2991,"la2":30.254,"lo1":-89.0895,"lo2":-89.0444,"dy":0.0017,"dx":0.0017,"nx":28,"ny":28,"refTime":"2025-07-07T09:00:00:Z","depth":0,"parameterNumber":3,"parameterNumberName":"V-component_of_WINDS"},"data":[0,0,0,0,0,0,0,0,0,0,0,0,0,0,0,0,0,0,0,0,0,0,0,0,0,0,0,0,0,0,0,0,0,0,0,0,0,0,0,0,0,0,0,0,0,0,0,0,0,0,0,0,0,0,0,0,0,0,-0.0844,-0.0843,0,-0.0773,-0.0772,-0.0771,-0.0739,-0.074,-0.074,-0.074,-0.0666,-0.0664,-0.0662,0,0,0,0,0,0,0,0,0,0,0,0,0,-0.0953,-0.0951,-0.0844,-0.0843,-0.0843,-0.0773,-0.0772,-0.0771,-0.0739,-0.074,-0.074,-0.074,-0.0667,-0.0664,-0.0662,0,0,0,0,0,0,0,0,0,0,0,0,0,-0.0896,-0.0951,-0.0844,-0.0818,-0.0815,-0.0773,-0.0772,-0.0771,-0.0739,-0.074,-0.074,-0.074,-0.0667,-0.0664,-0.0661,-0.0639,0,0,-0.0652,-0.0651,0,0,0,0,0,0,0,0,-0.09,-0.0892,-0.0823,-0.082,-0.0817,-0.0765,-0.0783,-0.0727,-0.0739,-0.0768,-0.074,-0.074,-0.0699,-0.0693,-0.0679,-0.0636,-0.0633,-0.0652,-0.065,-0.0648,-0.0648,0,0,0,0,0,0,0,-0.0903,-0.0895,-0.0816,-0.0822,-0.0818,-0.081,-0.0802,-0.0772,-0.0734,-0.0766,-0.0763,-0.0755,-0.0697,-0.0682,-0.0677,-0.0632,-0.0652,-0.0649,-0.0647,-0.0646,-0.0567,-0.0567,0,0,0,0,0,0,-0.0912,-0.0899,-0.0818,-0.0814,-0.0859,-0.0808,-0.0799,-0.0782,-0.0734,-0.0727,-0.0755,-0.0754,-0.0688,-0.0681,-0.0675,-0.0646,-0.0648,-0.0646,-0.0644,-0.0567,-0.0567,-0.0567,0,0,0,0,0,0,-0.0914,-0.0905,-0.0821,-0.0856,-0.0844,-0.0806,-0.0786,-0.078,-0.0765,-0.0726,-0.0719,-0.0747,-0.0687,-0.0679,-0.0648,-0.0643,-0.0644,-0.0641,-0.0567,-0.0567,-0.0567,-0.0588,0,0,0,0,0,0,-0.0918,-0.0906,-0.0897,-0.0856,-0.0843,-0.0796,-0.0786,-0.0779,-0.076,-0.0758,-0.0717,-0.071,-0.0687,-0.0653,-0.0645,-0.0639,-0.0639,-0.0568,-0.0567,-0.0567,-0.0588,-0.0588,-0.0589,0,0,0,0,0,-0.0921,-0.0906,-0.0897,-0.0887,-0.0831,-0.0796,-0.0788,-0.0763,-0.076,-0.0751,-0.0726,-0.0711,-0.0645,-0.065,-0.0641,-0.0633,-0.0568,-0.0567,-0.0567,-0.0587,-0.0588,-0.0589,0,0,0,0,0,0,-0.0948,-0.09,-0.089,-0.086,-0.0832,-0.0791,-0.0778,-0.0764,-0.0737,-0.0736,-0.0705,-0.0695,-0.0668,-0.0647,-0.0655,-0.061,-0.0605,-0.0603,-0.0624,-0.0624,-0.0625,-0.063,-0.0636,0,0,0,0,0,-0.095,-0.0926,-0.0885,-0.0863,-0.085,-0.0817,-0.0801,-0.0783,-0.0753,-0.0741,-0.0713,-0.0685,-0.0657,-0.064,-0.0612,-0.0585,-0.0575,-0.0575,-0.0576,-0.0577,-0.0575,-0.0559,-0.0558,-0.0565,-0.0565,-0.0565,0,0,-0.0954,-0.0926,-0.0912,-0.0868,-0.0844,-0.082,-0.0807,-0.0782,-0.0763,-0.0737,-0.0706,-0.0685,-0.0651,-0.0622,-0.0608,-0.0605,-0.0571,-0.0576,-0.0577,-0.0574,-0.0558,-0.0557,-0.0557,-0.0564,-0.0564,-0.0564,0,0,-0.095,-0.0926,-0.0905,-0.0882,-0.0846,-0.0824,-0.082,-0.078,-0.0765,-0.0734,-0.0714,-0.0692,-0.0645,-0.0622,-0.0604,-0.0591,-0.0577,-0.0583,-0.0587,-0.0572,-0.0571,-0.0571,-0.0566,-0.0565,-0.0582,-0.0582,-0.0582,0,-0.096,-0.0922,-0.0896,-0.0871,-0.0853,-0.0828,-0.0807,-0.0786,-0.0743,-0.0731,-0.0728,-0.0669,-0.0644,-0.0609,-0.0607,-0.0593,-0.0586,-0.0588,-0.0574,-0.0573,-0.0572,-0.0567,-0.0565,-0.0583,-0.0583,-0.0583,-0.0582,0,-0.0936,-0.0911,-0.0898,-0.0858,-0.0838,-0.0815,-0.0785,-0.0767,-0.0752,-0.073,-0.0699,-0.0669,-0.0635,-0.0626,-0.061,-0.0589,-0.0588,-0.058,-0.0574,-0.0572,-0.0567,-0.0565,-0.0584,-0.0584,-0.0583,-0.0583,0,0,-0.0946,-0.0892,-0.0887,-0.0869,-0.0829,-0.0808,-0.0784,-0.0752,-0.0737,-0.0709,-0.0688,-0.065,-0.0642,-0.0622,-0.0604,-0.059,-0.0583,-0.0584,-0.0583,-0.0584,-0.0557,-0.0563,-0.0562,-0.0573,-0.0573,-0.0572,-0.056,0,-0.0936,-0.0892,-0.0868,-0.0834,-0.081,-0.0787,-0.0766,-0.074,-0.0719,-0.0695,-0.0673,-0.0646,-0.0638,-0.0625,-0.0611,-0.0587,-0.0577,-0.0587,-0.0553,-0.0553,-0.0562,-0.0559,-0.0565,-0.0555,-0.0558,-0.0557,-0.0557,0,-0.0918,-0.089,-0.0855,-0.0817,-0.0806,-0.0788,-0.0756,-0.0734,-0.0703,-0.0689,-0.0667,-0.0649,-0.0623,-0.062,-0.0584,-0.0592,-0.0577,-0.0563,-0.0562,-0.0557,-0.0554,-0.0554,-0.0551,-0.0549,-0.0554,-0.0554,-0.0554,0,-0.0928,-0.0882,-0.0855,-0.084,-0.0796,-0.0783,-0.0764,-0.0734,-0.0716,-0.0688,-0.0676,-0.0645,-0.0629,-0.0606,-0.058,-0.058,-0.0546,-0.0541,-0.0534,-0.0534,-0.0527,-0.0528,-0.0521,-0.0518,-0.0518,-0.0518,-0.0518,0,-0.0919,-0.0898,-0.0859,-0.0842,-0.0818,-0.079,-0.0767,-0.0746,-0.0719,-0.0698,-0.0676,-0.0657,-0.0624,-0.0601,-0.058,-0.0554,-0.0546,-0.0534,-0.0529,-0.0536,-0.0537,-0.0525,-0.0525,-0.0518,-0.0518,-0.0518,-0.0518,0,-0.0926,-0.0899,-0.0868,-0.0829,-0.0818,-0.0802,-0.0769,-0.0751,-0.073,-0.0704,-0.0696,-0.0662,-0.0633,-0.0606,-0.0567,-0.0553,-0.0527,-0.052,-0.0537,-0.0534,-0.0528,-0.0529,-0.0513,-0.0509,-0.0509,-0.051,-0.051,0,-0.0922,-0.0905,-0.0865,-0.0849,-0.083,-0.0805,-0.0787,-0.0759,-0.0741,-0.0705,-0.0692,-0.0662,-0.0636,-0.0591,-0.0563,-0.0534,-0.0526,-0.0522,-0.0521,-0.0529,-0.0526,-0.0527,-0.0525,-0.0523,-0.0523,-0.0523,-0.0523,0,-0.0917,-0.0905,-0.0879,-0.0849,-0.0828,-0.0803,-0.0777,-0.0765,-0.0732,-0.0713,-0.0684,-0.0664,-0.0625,-0.0595,-0.0562,-0.0542,-0.0527,-0.0524,-0.0521,-0.0527,-0.0538,-0.0532,-0.0539,-0.0524,-0.0524,-0.0524,-0.0524,-0.0524,-0.0918,-0.0902,-0.0871,-0.0844,-0.0821,-0.0798,-0.078,-0.0757,-0.0731,-0.0697,-0.0683,-0.0653,-0.0623,-0.0577,-0.0558,-0.0534,-0.0531,-0.0526,-0.0525,-0.0524,-0.0525,-0.0542,-0.0528,-0.0528,-0.0528,-0.0528,-0.0528,0,-0.0912,-0.0891,-0.0866,-0.0831,-0.0809,-0.0797,-0.0768,-0.0751,-0.0725,-0.0698,-0.0673,-0.064,-0.0611,-0.0581,-0.0551,-0.0537,-0.053,-0.053,-0.0531,-0.0526,-0.053,-0.0536,-0.0537,-0.0537,-0.0537,-0.0537,-0.0537,-0.0537,-0.0907,-0.0879,-0.0863,-0.0825,-0.0804,-0.0775,-0.0759,-0.0737,-0.0716,-0.0679,-0.0655,-0.0636,-0.0608,-0.0575,-0.0548,-0.054,-0.053,-0.0533,-0.0523,-0.0527,-0.0526,-0.0526,-0.0531,-0.0531,-0.0531,-0.0521,-0.0521,-0.0521]}]]